This demonstration page uses our WeatherBlox Daily Observations layout. Learn more.

Left ArrowRight Arrow

Hourly Observations for April 21, 2017

Temp ( °F °C ) Dew Point ( °F °C ) Humidity (%) Winds ( mph kmh ) Pressure ( in mb ) Visibility ( mi km ) Precip ( " mm )
12:59 am 00:59 Mostly Cloudy 73 22.8 63 17.2 71 71 SSW 6 9 29.98 1015 9 14 0.00 0.00
1:59 am 01:59 Partly Cloudy 73 22.8 63 17.2 71 71 SSW 9 15 29.95 1014 9 14 0.00 0.00
2:59 am 02:59 Partly Cloudy 72 22.2 62 16.7 71 71 SSW 9 15 29.94 1014 9 14 0.00 0.00
3:59 am 03:59 Clear 71 21.7 62 16.7 73 73 SSW 8 13 29.93 1014 9 14 0.00 0.00
4:59 am 04:59 Clear 70 21.1 62 16.7 76 76 SW 9 15 29.93 1014 8 13 0.00 0.00
5:59 am 05:59 Partly Cloudy 69 20.6 62 16.7 78 78 SSW 8 13 29.93 1014 8 13 0.00 0.00
6:59 am 06:59 Partly Cloudy 70 21.1 62 16.7 76 76 SW 9 15 29.94 1014 10 16 0.00 0.00
7:59 am 07:59 Partly Cloudy 73 22.8 62 16.7 69 69 SW 12 19 29.93 1014 8 13 0.00 0.00
8:59 am 08:59 Partly Cloudy 75 23.9 62 16.7 64 64 W 13 20 29.93 1014 8 13 0.00 0.00
9:59 am 09:59 Mostly Sunny 77 25 62 16.7 60 60 W 10 17 29.93 1014 8 13 0.00 0.00
10:59 am 10:59 Mostly Sunny 81 27.2 62 16.7 53 53 W 10 17 29.92 1013 9 14 0.00 0.00
11:59 am 11:59 Mostly Sunny 83 28.3 62 16.7 49 49 WSW 8 13 29.91 1013 9 14 0.00 0.00
12:59 pm 12:59 Mostly Sunny 87 30.6 62 16.7 43 43 SW 10 17 29.89 1012 9 14 0.00 0.00
1:59 pm 13:59 Mostly Sunny 88 31.1 60 15.6 39 39 W 10 17 29.88 1012 9 14 0.00 0.00
2:59 pm 14:59 Partly Cloudy 85 29.4 60 15.6 43 43 W 10 17 29.85 1011 10 16 0.00 0.00
3:59 pm 15:59 Partly Cloudy 86 30 63 17.2 46 46 WSW 7 11 29.83 1010 10 16 0.00 0.03
4:59 pm 16:59 Partly Cloudy 86 30 63 17.2 46 46 WSW 5 7 29.82 1010 10 16 0.00 0.00
5:59 pm 17:59 Partly Cloudy 86 30 62 16.7 45 45 SW 6 9 29.82 1010 10 16 0.00 0.00
6:59 pm 18:59 Partly Cloudy 83 28.3 60 15.6 46 46 SW 10 17 29.81 1010 10 16 0.00 0.00
7:59 pm 19:59 Partly Cloudy 79 26.1 61 16.1 54 54 SSW 7 11 29.82 1010 10 16 0.00 0.00
8:59 pm 20:59 Partly Cloudy 77 25 61 16.1 58 58 SSW 6 9 29.84 1011 10 16 0.00 0.00
9:59 pm 21:59 Partly Cloudy 76 24.4 60 15.6 58 58 SSW 7 11 29.86 1011 10 16 0.00 0.00
10:59 pm 22:59 Partly Cloudy 74 23.3 62 16.7 67 67 NNW 7 11 29.87 1012 10 16 0.00 0.00
11:59 pm 23:59 Mostly Cloudy 72 22.2 61 16.1 68 68 Calm 29.88 1012 10 16 0.00 0.00

Powered by AerisWeather